Wind_Speed
11 11 11 11 12 12 12 12 12 13 14 15 16 18 19 20 21 21 22 23 24 26 28 30 32 33 34 35 35 36 37 38 39 40 41 41 42 42 42 42 41 41 41 40
12 13 12 11 12 12 12 12 12 14 16 17 18 20 21 21 21 21 22 24 25 27 29 32 33 34 35 35 36 37 38 39 40 41 42 43 43 43 43 43 42 42 41 40
12 13 12 12 11 11 11 12 14 16 18 19 20 21 21 21 21 22 23 25 27 29 31 33 34 35 36 36 37 38 39 40 41 42 43 44 44 44 44 44 43 42 41 41
11 11 11 10 10 10 11 13 15 17 19 21 21 22 22 21 22 23 24 26 29 31 33 34 35 36 36 37 38 39 40 42 43 43 44 45 45 45 45 44 44 42 42 42
11 10 9 9 9 10 12 14 16 18 20 21 21 22 22 22 23 24 26 28 30 32 34 35 36 36 37 38 39 40 42 43 44 44 45 45 45 45 45 45 44 43 42 42
13 12 10 10 11 12 14 15 17 19 21 21 21 22 22 23 24 25 27 29 31 33 34 35 36 36 37 39 40 41 43 43 44 45 46 46 46 46 45 45 44 43 43 41
15 15 12 13 13 14 16 18 19 20 21 22 22 23 24 24 25 27 28 30 32 34 35 35 36 37 38 39 41 42 43 45 45 46 46 46 46 46 46 45 44 43 42 41
17 16 16 16 16 17 19 19 21 22 23 23 24 25 25 26 27 29 30 32 33 34 35 35 36 37 39 40 42 43 44 45 46 46 47 47 46 46 45 45 43 42 41 40
19 19 19 19 20 20 21 22 22 23 24 25 26 26 27 28 30 31 32 33 35 35 36 36 37 39 40 42 43 44 45 46 46 47 47 47 46 45 45 44 42 42 41 39
24 23 23 23 23 23 24 24 25 26 26 27 28 28 29 30 32 33 34 35 36 36 36 37 39 41 43 44 45 45 46 47 47 48 47 47 46 45 44 43 42 41 39 37
27 26 26 25 25 26 26 27 27 27 28 28 29 30 31 32 34 35 35 36 36 37 37 38 40 42 44 46 46 47 47 48 48 48 46 46 46 45 44 42 41 40 38 36
29 28 28 27 27 28 28 29 29 29 29 30 31 32 33 34 35 35 36 36 37 37 39 40 41 43 45 47 47 48 48 48 48 47 46 46 45 44 43 42 40 39 37 35
31 31 31 30 30 30 31 31 32 32 32 32 32 33 34 34 35 36 36 36 37 39 41 42 44 45 47 48 48 48 48 48 47 47 46 46 44 42 40 40 39 38 36 33
32 33 33 33 33 33 33 34 34 34 34 34 34 35 35 36 37 37 37 37 39 41 43 46 47 47 49 50 50 49 48 47 46 45 44 44 43 41 39 38 36 36 34 32
33 34 35 35 35 35 35 36 36 36 37 37 37 37 38 39 39 39 39 40 42 44 47 48 49 50 51 51 51 50 48 46 45 43 43 42 41 40 38 37 35 34 33 30
35 36 37 38 38 38 38 38 38 38 39 40 41 41 41 42 41 42 43 43 45 47 49 50 51 52 51 51 51 49 47 45 43 41 41 40 39 38 37 35 34 33 31 28
38 39 40 40 41 41 41 41 42 42 43 43 44 44 44 45 45 45 45 46 48 50 51 52 52 52 51 51 50 48 46 43 41 39 39 38 37 36 35 33 32 31 29 27
41 41 42 42 43 43 43 44 44 44 45 46 47 48 48 47 47 48 49 51 52 51 52 52 53 53 52 52 50 47 44 41 39 38 36 35 35 34 33 31 30 28 28 26
43 43 43 44 44 45 45 45 46 47 48 48 49 50 50 51 52 53 54 54 53 53 52 53 54 53 53 51 49 45 42 39 37 35 34 33 33 32 31 29 28 26 26 25
45 46 46 46 47 47 48 49 50 51 52 53 53 54 55 55 56 56 56 56 55 55 55 55 54 53 51 49 46 43 40 36 34 32 32 31 30 29 28 27 25 24 24 23
47 47 48 49 50 51 52 53 54 55 56 57 58 58 59 59 59 60 59 58 57 57 56 55 54 51 49 46 43 40 37 34 32 30 29 28 27 26 25 24 23 22 21 21
49 50 51 52 53 54 56 57 58 59 60 61 62 62 62 62 62 61 60 59 58 57 55 53 51 49 46 43 40 37 34 32 29 27 27 26 25 24 23 21 21 19 19 19
53 54 54 55 57 58 59 60 61 62 62 63 63 64 64 63 63 62 60 58 57 55 53 51 48 45 42 39 36 34 31 28 26 25 24 23 22 21 20 18 18 17 17 17
56 57 58 59 59 60 61 62 63 63 63 64 64 64 63 63 61 61 59 57 55 52 50 47 44 42 39 36 33 30 28 26 23 23 22 20 20 18 17 16 15 15 15 15
59 59 60 61 62 62 63 63 64 64 64 63 63 62 62 61 60 58 55 53 50 48 45 43 40 37 34 31 29 26 24 23 22 21 20 18 17 16 15 14 13 13 13 12
60 61 62 62 63 63 63 63 63 63 62 62 61 60 58 57 55 53 51 48 46 43 40 37 35 32 29 27 25 25 23 22 21 20 18 17 16 14 13 12 11 10 10 10
60 60 61 61 61 61 60 60 60 59 59 58 57 55 53 51 49 46 44 42 39 37 35 33 30 28 26 24 23 23 21 20 19 18 16 15 14 13 11 10 9 8 7 7
Wind_Direction
283 283 282 281 281 286 294 303 308 311 313 315 314 317 321 324 326 327 329 331 334 335 336 336 336 335 335 334 334 334 334 334 334 333 332 331 329 328 326 323 321 318 314 310
286 292 292 289 286 288 292 298 303 306 310 313 315 318 321 323 324 326 328 330 333 334 335 335 335 335 334 334 334 334 334 334 333 333 332 330 329 327 326 323 321 318 315 311
282 289 296 295 295 296 300 300 301 304 308 312 315 317 320 322 323 325 327 330 333 334 334 334 333 333 333 334 333 333 334 333 333 332 331 330 329 327 326 324 321 319 316 313
277 288 299 302 301 303 304 305 303 305 307 311 314 317 319 321 323 326 329 331 332 333 333 332 332 332 332 333 333 333 333 333 332 332 331 330 329 327 326 324 322 320 318 315
276 288 296 299 301 305 305 306 304 306 307 309 312 316 319 321 324 326 329 330 331 331 330 331 331 331 331 332 333 333 332 332 332 332 331 330 329 328 327 325 323 321 319 317
278 288 293 300 301 304 302 305 304 306 306 310 313 316 319 321 323 325 327 327 328 328 329 329 330 331 331 332 332 332 332 332 331 331 331 331 330 328 327 326 325 323 322 320
279 285 292 298 304 305 308 308 306 307 309 312 314 316 318 320 321 323 324 324 325 326 328 329 330 331 331 332 332 332 332 331 331 331 331 331 330 329 328 327 326 325 324 322
279 285 293 297 303 305 306 305 306 309 310 312 313 314 316 317 319 320 321 322 324 325 327 329 330 331 331 330 331 331 330 331 331 331 331 331 330 329 329 329 328 328 327 324
281 286 293 297 301 302 303 304 305 306 308 310 311 312 313 314 316 317 319 321 323 325 326 328 330 331 330 330 330 330 330 330 331 331 331 331 331 330 330 330 329 329 329 327
282 287 291 294 297 298 299 301 302 303 305 307 308 309 310 311 313 315 317 320 322 324 325 326 328 329 330 330 330 329 328 329 330 331 331 331 331 331 331 331 331 331 331 331
277 282 285 287 291 293 295 297 299 300 301 303 304 306 307 309 311 313 315 319 321 323 324 325 326 327 328 329 329 329 328 328 329 331 332 332 332 332 332 332 332 333 333 332
273 277 280 285 288 290 292 293 295 296 298 299 301 304 305 307 310 312 314 317 320 322 323 324 325 326 327 328 328 328 328 328 329 330 331 331 332 333 333 333 333 334 334 334
275 278 281 284 286 288 289 290 291 294 296 298 299 301 303 305 307 310 313 315 317 320 321 321 322 323 325 327 327 328 328 328 328 329 330 331 332 333 333 334 334 335 336 336
274 278 280 283 284 285 286 288 290 292 293 295 297 299 300 302 304 306 310 312 314 316 318 319 319 320 322 324 325 326 327 327 328 329 330 331 332 333 333 334 334 336 337 338
273 275 277 279 280 281 283 284 286 287 290 291 293 294 295 297 299 301 306 309 310 312 315 317 316 317 319 322 323 325 325 326 327 328 329 331 333 333 333 334 335 337 338 339
275 275 275 277 278 279 280 281 283 285 288 289 290 292 293 294 296 297 301 304 305 308 311 313 313 314 316 319 321 323 324 324 325 326 328 330 332 333 333 334 336 338 340 341
274 275 276 278 279 281 282 283 283 285 286 287 289 290 292 293 294 295 297 300 302 304 307 309 310 312 314 316 319 320 321 322 323 324 326 328 330 332 332 334 336 339 341 341
273 275 277 278 280 281 282 283 284 284 285 286 287 289 289 290 291 292 294 297 299 301 304 306 308 309 311 313 315 317 318 319 320 322 324 326 329 330 331 332 334 338 341 342
279 280 280 281 281 281 281 282 283 284 284 285 286 286 286 288 290 291 293 295 297 300 302 304 306 307 308 310 312 313 314 315 316 318 321 324 327 328 331 332 333 337 341 343
282 283 283 283 282 282 282 282 282 282 282 283 284 285 287 289 291 292 293 294 296 298 300 301 303 305 306 307 308 308 310 310 312 314 317 320 323 326 329 332 334 337 341 344
281 281 281 281 282 282 282 282 282 282 283 284 285 286 287 289 290 291 292 294 296 297 298 299 301 302 302 303 304 304 305 306 307 309 313 316 319 323 327 329 333 337 341 344
280 281 281 281 281 281 282 282 283 284 285 286 287 288 288 289 290 291 292 293 294 295 296 297 298 298 299 300 300 300 301 301 301 304 308 312 315 318 323 327 330 335 341 345
282 282 282 282 282 283 283 283 284 285 285 286 287 288 288 289 290 290 291 291 292 293 293 294 294 295 295 295 295 295 295 296 296 298 302 307 311 314 319 324 327 332 338 345
284 284 284 284 284 284 285 285 285 286 286 287 287 288 288 288 288 289 290 290 290 290 290 290 291 291 291 291 290 289 288 289 291 293 297 302 305 309 315 319 322 328 334 341
286 286 287 287 287 288 288 288 288 288 289 289 289 289 289 289 289 288 288 288 287 287 287 286 286 286 285 285 284 283 281 282 285 287 291 295 298 302 309 313 316 321 329 338
289 289 289 290 290 291 291 291 291 292 292 291 291 291 290 289 289 287 286 285 283 282 282 281 280 279 278 277 276 275 276 278 279 281 283 286 290 294 301 306 310 315 324 334
291 291 292 292 293 293 294 294 294 295 295 294 294 293 292 290 289 286 284 282 279 277 276 275 273 271 269 268 269 270 270 272 274 274 275 278 283 287 292 298 302 309 318 328
Height
5847 5846 5845 5844 5843 5842 5841 5840 5839 5837 5835 5834 5831 5828 5826 5823 5819 5816 5813 5810 5807 5803 5799 5794 5789 5784 5779 5774 5768 5762 5756 5750 5744 5737 5731 5724 5717 5710 5703 5696 5690 5684 5677 5672
5844 5842 5841 5840 5839 5838 5837 5836 5835 5833 5832 5829 5827 5824 5821 5818 5815 5812 5809 5806 5802 5798 5794 5789 5784 5779 5773 5768 5762 5756 5750 5743 5737 5730 5723 5716 5709 5702 5694 5687 5680 5673 5667 5661
5841 5840 5839 5838 5836 5835 5834 5833 5831 5829 5828 5824 5822 5819 5816 5814 5811 5808 5805 5801 5797 5793 5788 5784 5778 5773 5767 5762 5756 5750 5743 5737 5730 5723 5715 5708 5700 5693 5685 5678 5671 5663 5656 5650
5838 5838 5836 5837 5833 5832 5831 5829 5827 5825 5823 5820 5817 5815 5812 5810 5807 5803 5800 5796 5792 5788 5783 5778 5773 5767 5761 5756 5749 5743 5736 5730 5723 5715 5708 5700 5692 5684 5676 5669 5661 5653 5646 5639
5835 5834 5833 5833 5831 5829 5828 5826 5823 5821 5818 5816 5813 5810 5808 5805 5802 5798 5795 5791 5787 5783 5778 5773 5767 5761 5755 5749 5743 5737 5730 5723 5715 5708 5700 5692 5684 5676 5668 5660 5651 5643 5636 5629
5832 5831 5830 5830 5828 5826 5825 5822 5819 5816 5813 5811 5808 5806 5804 5800 5797 5793 5790 5786 5782 5777 5772 5767 5761 5755 5749 5743 5737 5730 5723 5716 5708 5700 5692 5684 5676 5668 5659 5651 5642 5634 5626 5618
5827 5826 5826 5825 5823 5822 5821 5818 5815 5811 5809 5806 5803 5801 5799 5795 5792 5788 5784 5781 5776 5771 5766 5761 5755 5749 5743 5737 5731 5724 5716 5709 5701 5693 5685 5676 5668 5659 5651 5642 5634 5625 5617 5609
5822 5821 5822 5820 5818 5817 5814 5812 5809 5806 5803 5801 5798 5795 5792 5790 5786 5783 5779 5775 5770 5765 5760 5755 5749 5743 5737 5731 5724 5717 5710 5702 5694 5686 5677 5669 5660 5651 5642 5634 5625 5617 5608 5600
5817 5818 5816 5813 5812 5810 5808 5806 5803 5801 5798 5795 5792 5789 5786 5783 5780 5776 5773 5768 5764 5759 5754 5748 5743 5737 5731 5724 5717 5710 5702 5695 5687 5678 5669 5661 5652 5644 5635 5626 5618 5609 5600 5592
5810 5810 5809 5807 5806 5804 5802 5800 5797 5795 5792 5789 5786 5783 5780 5777 5773 5769 5765 5761 5757 5752 5747 5741 5736 5730 5724 5717 5710 5703 5695 5687 5679 5671 5662 5653 5645 5636 5628 5619 5611 5602 5593 5585
5803 5803 5802 5801 5799 5797 5795 5793 5791 5789 5786 5783 5780 5777 5774 5770 5766 5762 5758 5754 5749 5744 5739 5734 5729 5723 5717 5710 5703 5696 5688 5680 5672 5663 5655 5646 5638 5629 5621 5612 5604 5596 5587 5579
5796 5796 5794 5793 5792 5790 5788 5786 5784 5781 5779 5776 5773 5770 5766 5763 5759 5754 5750 5746 5741 5736 5732 5727 5721 5715 5709 5702 5695 5688 5680 5672 5664 5656 5648 5640 5632 5623 5613 5606 5598 5590 5582 5574
5788 5788 5786 5785 5784 5782 5780 5778 5776 5773 5771 5768 5765 5762 5758 5755 5750 5746 5742 5738 5733 5728 5724 5719 5713 5707 5701 5694 5687 5680 5672 5665 5657 5649 5641 5633 5625 5617 5609 5601 5592 5584 5577 5569
5780 5779 5778 5777 5775 5773 5771 5769 5767 5765 5762 5759 5756 5753 5750 5746 5742 5737 5733 5729 5725 5720 5715 5710 5705 5699 5692 5685 5678 5671 5664 5657 5650 5642 5634 5627 5619 5611 5604 5596 5588 5580 5573 5565
5772 5770 5768 5767 5765 5763 5761 5759 5757 5755 5753 5750 5747 5743 5740 5736 5732 5728 5724 5720 5715 5711 5706 5701 5696 5690 5683 5676 5670 5663 5656 5649 5642 5635 5628 5621 5614 5606 5598 5591 5583 5576 5569 5562
5761 5760 5758 5756 5755 5753 5751 5749 5747 5745 5743 5740 5736 5733 5729 5725 5721 5718 5714 5709 5705 5701 5696 5691 5686 5680 5673 5667 5661 5654 5648 5641 5635 5628 5622 5615 5608 5601 5594 5587 5580 5573 5566 5559
5751 5749 5747 5746 5744 5742 5740 5739 5736 5734 5731 5728 5725 5721 5718 5714 5710 5706 5702 5698 5694 5690 5685 5680 5675 5669 5664 5658 5652 5646 5639 5633 5628 5622 5616 5610 5603 5597 5590 5583 5576 5570 5563 5557
5740 5738 5737 5735 5733 5731 5729 5726 5724 5721 5718 5715 5712 5709 5705 5701 5698 5694 5690 5686 5682 5678 5674 5669 5664 5659 5653 5648 5642 5637 5631 5626 5621 5615 5610 5604 5598 5592 5586 5580 5573 5567 5561 5555
5728 5726 5725 5723 5721 5718 5716 5713 5710 5707 5704 5701 5698 5695 5691 5688 5685 5681 5677 5673 5669 5665 5661 5656 5652 5647 5642 5637 5632 5627 5622 5618 5613 5608 5604 5599 5593 5588 5582 5576 5570 5564 5559 5553
5715 5713 5711 5708 5706 5703 5701 5698 5695 5692 5689 5686 5683 5680 5677 5673 5670 5667 5663 5660 5656 5651 5647 5643 5639 5635 5631 5626 5622 5617 5613 5609 5605 5602 5597 5593 5588 5583 5578 5573 5567 5562 5557 5552
5700 5698 5696 5693 5690 5687 5685 5682 5679 5676 5672 5669 5666 5664 5661 5658 5654 5651 5647 5645 5642 5636 5633 5629 5626 5622 5618 5615 5611 5607 5604 5601 5598 5594 5591 5587 5583 5579 5574 5570 5565 5560 5555 5550
5685 5683 5680 5677 5674 5671 5668 5665 5662 5659 5655 5652 5649 5646 5643 5640 5637 5634 5631 5628 5625 5621 5618 5615 5612 5609 5606 5603 5600 5597 5595 5592 5590 5587 5585 5581 5578 5574 5570 5566 5562 5558 5554 5550
5669 5666 5664 5661 5658 5655 5651 5648 5645 5641 5638 5635 5632 5628 5625 5622 5619 5616 5615 5612 5608 5605 5602 5600 5597 5595 5593 5591 5589 5587 5585 5583 5582 5580 5578 5576 5573 5570 5567 5563 5560 5556 5553 5549
5652 5649 5646 5643 5639 5636 5633 5630 5626 5623 5620 5617 5613 5609 5606 5604 5601 5598 5595 5593 5591 5589 5587 5585 5583 5582 5581 5579 5578 5577 5576 5575 5574 5573 5571 5570 5568 5565 5563 5560 5557 5554 5551 5548
5634 5630 5627 5624 5620 5617 5613 5610 5606 5603 5600 5597 5593 5590 5586 5583 5581 5580 5577 5575 5574 5572 5572 5571 5570 5569 5568 5568 5567 5567 5567 5567 5566 5566 5565 5564 5562 5561 5559 5557 5554 5552 5550 5547
5615 5611 5608 5604 5600 5597 5593 5589 5586 5582 5579 5576 5573 5569 5566 5563 5561 5559 5558 5557 5556 5556 5556 5556 5556 5556 5557 5557 5557 5558 5558 5559 5559 5559 5558 5558 5557 5556 5555 5553 5551 5550 5548 5546
5596 5592 5588 5585 5581 5577 5573 5569 5566 5562 5559 5555 5552 5549 5546 5544 5542 5541 5540 5540 5540 5540 5542 5543 5544 5545 5546 5547 5548 5549 5550 5551 5552 5552 5552 5552 5552 5552 5551 5550 5549 5547 5546 5545